Time,TemperatureF,DewpointF,PressureIn,WindDirection,WindDirectionDegrees,WindSpeedMPH,WindSpeedGustMPH,Humidity,HourlyPrecipIn,Conditions,Clouds,dailyrainin,SoftwareType,DateUTC
2011-03-27 00:03:00,41.2,33.8,29.73,East,90,0.0,0.0,75,0.00,,,0.06,open2300-1.11,2011-03-27 06:03:00,
2011-03-27 00:13:00,41.4,34.0,29.73,East,90,0.0,0.0,75,0.00,,,0.06,open2300-1.11,2011-03-27 06:13:00,
2011-03-27 00:23:00,41.4,34.0,29.73,East,90,0.0,0.0,75,0.00,,,0.06,open2300-1.11,2011-03-27 06:23:00,
2011-03-27 00:33:00,41.5,34.2,29.73,East,90,0.0,0.0,75,0.00,,,0.06,open2300-1.11,2011-03-27 06:33:00,
2011-03-27 00:43:00,41.5,34.2,29.73,East,90,0.0,0.0,75,0.00,,,0.06,open2300-1.11,2011-03-27 06:43:00,
2011-03-27 00:53:00,41.5,34.2,29.73,East,90,0.0,0.0,75,0.00,,,0.06,open2300-1.11,2011-03-27 06:53:00,
2011-03-27 01:03:00,41.5,34.5,29.73,East,90,0.0,0.0,76,0.00,,,0.06,open2300-1.11,2011-03-27 07:03:00,
2011-03-27 01:13:00,41.5,34.5,29.73,East,90,0.0,0.0,76,0.00,,,0.06,open2300-1.11,2011-03-27 07:13:00,
2011-03-27 01:23:00,41.5,34.5,29.73,East,90,0.0,0.0,76,0.00,,,0.06,open2300-1.11,2011-03-27 07:23:00,
2011-03-27 01:33:00,41.7,34.3,29.73,East,90,0.0,0.0,75,0.00,,,0.06,open2300-1.11,2011-03-27 07:33:00,
2011-03-27 01:43:00,41.5,34.5,29.73,East,90,0.0,0.0,76,0.00,,,0.06,open2300-1.11,2011-03-27 07:43:00,
2011-03-27 01:53:00,41.7,34.7,29.72,East,90,0.0,0.0,76,0.00,,,0.06,open2300-1.11,2011-03-27 07:53:00,
2011-03-27 02:03:00,41.5,34.5,29.73,East,90,0.0,0.0,76,0.00,,,0.06,open2300-1.11,2011-03-27 08:03:00,
2011-03-27 02:13:00,41.5,34.8,29.73,East,90,0.0,0.0,77,0.00,,,0.06,open2300-1.11,2011-03-27 08:13:00,
2011-03-27 02:23:00,41.2,34.5,29.73,East,90,0.0,0.0,77,0.00,,,0.06,open2300-1.11,2011-03-27 08:23:00,
2011-03-27 02:33:00,41.0,34.3,29.73,East,90,0.0,0.0,77,0.00,,,0.06,open2300-1.11,2011-03-27 08:33:00,
2011-03-27 02:43:00,40.8,34.1,29.73,East,90,0.0,0.0,77,0.00,,,0.06,open2300-1.11,2011-03-27 08:43:00,
2011-03-27 02:53:00,40.5,33.4,29.72,East,90,0.0,0.0,76,0.00,,,0.06,open2300-1.11,2011-03-27 08:53:00,
2011-03-27 03:03:00,40.1,33.1,29.72,East,90,0.0,0.0,76,0.00,,,0.06,open2300-1.11,2011-03-27 09:03:00,
2011-03-27 03:13:00,39.6,32.6,29.72,East,90,0.0,0.0,76,0.00,,,0.06,open2300-1.11,2011-03-27 09:13:00,
2011-03-27 03:23:00,39.4,32.4,29.73,East,90,0.0,0.0,76,0.00,,,0.06,open2300-1.11,2011-03-27 09:23:00,
2011-03-27 03:33:00,39.0,32.1,29.72,East,90,0.0,0.0,76,0.00,,,0.06,open2300-1.11,2011-03-27 09:33:00,
2011-03-27 03:43:00,38.8,31.9,29.72,East,90,0.0,0.0,76,0.00,,,0.06,open2300-1.11,2011-03-27 09:43:00,
2011-03-27 03:53:00,38.8,31.9,29.72,East,90,0.0,0.0,76,0.00,,,0.06,open2300-1.11,2011-03-27 09:53:00,
2011-03-27 04:03:00,38.8,31.9,29.72,East,90,0.0,0.0,76,0.00,,,0.06,open2300-1.11,2011-03-27 10:03:00,
2011-03-27 04:13:00,38.5,31.9,29.73,East,90,0.0,0.0,77,0.00,,,0.06,open2300-1.11,2011-03-27 10:13:00,
2011-03-27 04:23:00,38.5,31.9,29.73,East,90,0.0,0.0,77,0.00,,,0.06,open2300-1.11,2011-03-27 10:23:00,
2011-03-27 04:33:00,38.8,32.2,29.73,East,90,0.0,0.0,77,0.00,,,0.06,open2300-1.11,2011-03-27 10:33:00,
2011-03-27 04:43:00,38.7,32.0,29.73,East,90,0.0,0.0,77,0.00,,,0.06,open2300-1.11,2011-03-27 10:43:00,
2011-03-27 04:53:00,38.8,32.6,29.74,East,90,0.0,0.0,78,0.00,,,0.06,open2300-1.11,2011-03-27 10:53:00,
2011-03-27 05:03:00,38.8,32.6,29.74,East,90,0.0,0.0,78,0.00,,,0.06,open2300-1.11,2011-03-27 11:03:00,
2011-03-27 05:13:00,38.8,32.6,29.73,East,90,0.0,0.0,78,0.00,,,0.06,open2300-1.11,2011-03-27 11:13:00,
2011-03-27 05:23:00,39.0,32.8,29.74,East,90,0.0,0.0,78,0.00,,,0.06,open2300-1.11,2011-03-27 11:23:00,
2011-03-27 05:33:00,39.2,32.9,29.74,East,90,0.0,0.0,78,0.00,,,0.06,open2300-1.11,2011-03-27 11:33:00,
2011-03-27 05:43:00,39.2,33.3,29.74,East,90,0.0,0.0,79,0.00,,,0.06,open2300-1.11,2011-03-27 11:43:00,
2011-03-27 05:53:00,39.4,33.4,29.74,East,90,0.0,0.0,79,0.00,,,0.06,open2300-1.11,2011-03-27 11:53:00,
2011-03-27 06:03:00,39.6,33.6,29.75,East,90,0.0,0.0,79,0.00,,,0.06,open2300-1.11,2011-03-27 12:03:00,
2011-03-27 06:13:00,39.4,33.4,29.75,East,90,0.0,0.0,79,0.00,,,0.06,open2300-1.11,2011-03-27 12:13:00,
2011-03-27 06:23:00,39.0,33.1,29.76,East,90,0.0,0.0,79,0.00,,,0.06,open2300-1.11,2011-03-27 12:23:00,
2011-03-27 06:33:00,39.0,33.1,29.76,East,90,0.0,0.0,79,0.00,,,0.06,open2300-1.11,2011-03-27 12:33:00,
2011-03-27 06:43:00,39.0,33.1,29.76,East,90,0.0,0.0,79,0.00,,,0.06,open2300-1.11,2011-03-27 12:43:00,
2011-03-27 06:53:00,39.0,33.1,29.76,East,90,0.0,0.0,79,0.00,,,0.06,open2300-1.11,2011-03-27 12:53:00,
2011-03-27 07:03:00,38.8,32.9,29.76,East,90,0.0,0.0,79,0.00,,,0.06,open2300-1.11,2011-03-27 13:03:00,
2011-03-27 07:13:00,38.8,32.9,29.77,East,90,0.0,0.0,79,0.00,,,0.06,open2300-1.11,2011-03-27 13:13:00,
2011-03-27 07:23:00,38.8,32.9,29.77,East,90,0.0,0.0,79,0.00,,,0.06,open2300-1.11,2011-03-27 13:23:00,
2011-03-27 07:33:00,38.7,32.7,29.77,East,90,0.0,0.0,79,0.00,,,0.06,open2300-1.11,2011-03-27 13:33:00,
2011-03-27 07:43:00,38.5,32.6,29.77,East,90,0.0,0.0,79,0.00,,,0.06,open2300-1.11,2011-03-27 13:43:00,
2011-03-27 07:53:00,38.3,32.4,29.77,East,90,0.0,0.0,79,0.00,,,0.06,open2300-1.11,2011-03-27 13:53:00,
2011-03-27 08:03:00,38.5,32.6,29.78,East,90,0.0,0.0,79,0.00,,,0.06,open2300-1.11,2011-03-27 14:03:00,
2011-03-27 08:13:00,38.8,33.3,29.78,East,90,0.0,0.0,80,0.00,,,0.06,open2300-1.11,2011-03-27 14:13:00,
2011-03-27 08:23:00,39.4,33.8,29.78,East,90,0.0,0.0,80,0.00,,,0.06,open2300-1.11,2011-03-27 14:23:00,
2011-03-27 08:33:00,40.1,34.7,29.79,East,90,0.0,0.0,81,0.00,,,0.06,open2300-1.11,2011-03-27 14:33:00,
2011-03-27 08:43:00,40.8,35.7,29.79,WNW,292,0.0,0.0,82,0.00,,,0.06,open2300-1.11,2011-03-27 14:43:00,
2011-03-27 08:53:00,41.5,35.8,29.79,NNW,337,0.4,2.5,80,0.00,,,0.06,open2300-1.11,2011-03-27 14:53:00,
2011-03-27 09:03:00,41.7,36.0,29.79,North,0,0.0,3.4,80,0.00,,,0.06,open2300-1.11,2011-03-27 15:03:00,
2011-03-27 09:13:00,42.1,36.3,29.80,NNW,337,1.8,2.5,80,0.00,,,0.06,open2300-1.11,2011-03-27 15:13:00,
2011-03-27 09:23:00,42.6,36.5,29.80,WNW,292,0.0,3.6,79,0.00,,,0.06,open2300-1.11,2011-03-27 15:23:00,
2011-03-27 09:33:00,43.0,36.9,29.80,WNW,292,2.0,2.0,79,0.00,,,0.06,open2300-1.11,2011-03-27 15:33:00,
2011-03-27 09:43:00,43.3,36.9,29.80,WNW,292,0.0,4.0,78,0.00,,,0.06,open2300-1.11,2011-03-27 15:43:00,
2011-03-27 09:53:00,43.7,37.3,29.80,WSW,247,4.7,4.7,78,0.00,,,0.06,open2300-1.11,2011-03-27 15:53:00,
2011-03-27 10:03:00,43.9,37.1,29.81,WNW,292,2.0,5.4,77,0.00,,,0.06,open2300-1.11,2011-03-27 16:03:00,
2011-03-27 10:13:00,44.2,37.1,29.80,WNW,292,0.0,2.5,76,0.00,,,0.06,open2300-1.11,2011-03-27 16:13:00,
2011-03-27 10:23:00,44.8,37.0,29.81,WNW,292,4.0,7.2,74,0.00,,,0.06,open2300-1.11,2011-03-27 16:23:00,
2011-03-27 10:33:00,44.8,36.6,29.81,WNW,292,3.1,4.2,73,0.00,,,0.06,open2300-1.11,2011-03-27 16:33:00,
2011-03-27 10:43:00,45.1,37.0,29.81,WSW,247,1.1,5.1,73,0.00,,,0.06,open2300-1.11,2011-03-27 16:43:00,
2011-03-27 10:53:00,46.0,37.9,29.81,SW,225,4.5,5.6,73,0.00,,,0.06,open2300-1.11,2011-03-27 16:53:00,
2011-03-27 11:03:00,47.1,38.5,29.82,WNW,292,2.5,5.6,72,0.00,,,0.06,open2300-1.11,2011-03-27 17:03:00,
2011-03-27 11:13:00,48.0,38.7,29.81,SW,225,3.1,6.5,70,0.00,,,0.06,open2300-1.11,2011-03-27 17:13:00,
2011-03-27 11:23:00,48.9,39.6,29.81,West,270,3.1,6.9,70,0.00,,,0.06,open2300-1.11,2011-03-27 17:23:00,
2011-03-27 11:33:00,49.8,38.5,29.81,WNW,292,0.0,6.7,65,0.00,,,0.06,open2300-1.11,2011-03-27 17:33:00,
2011-03-27 11:43:00,50.4,39.4,29.81,NW,315,5.8,6.3,66,0.00,,,0.06,open2300-1.11,2011-03-27 17:43:00,
2011-03-27 11:53:00,50.5,38.8,29.81,NW,315,7.4,7.4,64,0.00,,,0.06,open2300-1.11,2011-03-27 17:53:00,
2011-03-27 12:03:00,50.4,37.8,29.81,WNW,292,2.9,7.4,62,0.00,,,0.06,open2300-1.11,2011-03-27 18:03:00,
2011-03-27 12:13:00,49.8,36.9,29.81,West,270,1.3,3.1,61,0.00,,,0.06,open2300-1.11,2011-03-27 18:13:00,
2011-03-27 12:23:00,50.0,37.1,29.81,SW,225,1.1,3.4,61,0.00,,,0.06,open2300-1.11,2011-03-27 18:23:00,
2011-03-27 12:33:00,49.8,36.5,29.81,West,270,5.6,5.6,60,0.00,,,0.06,open2300-1.11,2011-03-27 18:33:00,
2011-03-27 12:43:00,50.7,37.7,29.81,WNW,292,8.7,8.7,61,0.00,,,0.06,open2300-1.11,2011-03-27 18:43:00,
2011-03-27 12:53:00,52.5,38.1,29.81,SW,225,6.3,11.9,58,0.00,,,0.06,open2300-1.11,2011-03-27 18:53:00,
2011-03-27 13:03:00,53.4,38.0,29.81,SW,225,0.0,6.7,56,0.00,,,0.06,open2300-1.11,2011-03-27 19:03:00,
2011-03-27 13:13:00,54.1,38.2,29.81,SW,225,3.6,7.6,55,0.00,,,0.06,open2300-1.11,2011-03-27 19:13:00,
2011-03-27 13:23:00,55.2,38.3,29.80,West,270,0.0,7.6,53,0.00,,,0.06,open2300-1.11,2011-03-27 19:23:00,
2011-03-27 13:33:00,55.2,37.3,29.80,NW,315,5.4,5.4,51,0.00,,,0.06,open2300-1.11,2011-03-27 19:33:00,
2011-03-27 13:43:00,55.2,37.3,29.80,WNW,292,4.0,5.6,51,0.00,,,0.06,open2300-1.11,2011-03-27 19:43:00,
2011-03-27 13:53:00,55.8,37.9,29.79,SSW,202,5.6,5.6,51,0.00,,,0.06,open2300-1.11,2011-03-27 19:53:00,
2011-03-27 14:03:00,56.8,38.5,29.79,WSW,247,3.6,5.6,50,0.00,,,0.06,open2300-1.11,2011-03-27 20:03:00,
2011-03-27 14:13:00,57.4,37.8,29.79,SW,225,2.5,9.4,48,0.00,,,0.06,open2300-1.11,2011-03-27 20:13:00,
2011-03-27 14:23:00,57.9,38.3,29.78,WSW,247,3.4,3.4,48,0.00,,,0.06,open2300-1.11,2011-03-27 20:23:00,
2011-03-27 14:33:00,58.3,37.5,29.78,NNE,22,4.2,6.7,46,0.00,,,0.06,open2300-1.11,2011-03-27 20:33:00,
2011-03-27 14:43:00,58.6,36.7,29.78,ESE,112,3.8,5.8,44,0.00,,,0.06,open2300-1.11,2011-03-27 20:43:00,
2011-03-27 14:53:00,58.8,36.3,29.78,West,270,5.6,5.8,43,0.00,,,0.06,open2300-1.11,2011-03-27 20:53:00,
2011-03-27 15:03:00,59.0,37.0,29.77,North,0,0.0,5.6,44,0.00,,,0.06,open2300-1.11,2011-03-27 21:03:00,
2011-03-27 15:13:00,59.7,37.1,29.77,WSW,247,6.7,6.7,43,0.00,,,0.06,open2300-1.11,2011-03-27 21:13:00,
2011-03-27 15:23:00,60.4,37.2,29.77,West,270,0.0,6.7,42,0.00,,,0.06,open2300-1.11,2011-03-27 21:23:00,
2011-03-27 15:33:00,60.4,36.6,29.77,SW,225,5.4,6.0,41,0.00,,,0.06,open2300-1.11,2011-03-27 21:33:00,
2011-03-27 15:43:00,60.4,33.8,29.76,WSW,247,6.3,6.3,37,0.00,,,0.06,open2300-1.11,2011-03-27 21:43:00,
2011-03-27 15:53:00,60.4,34.6,29.76,West,270,2.9,6.3,38,0.00,,,0.06,open2300-1.11,2011-03-27 21:53:00,
2011-03-27 16:03:00,61.0,35.8,29.76,WSW,247,6.5,6.5,39,0.00,,,0.06,open2300-1.11,2011-03-27 22:03:00,
2011-03-27 16:13:00,61.5,35.5,29.76,WSW,247,0.0,6.5,38,0.00,,,0.06,open2300-1.11,2011-03-27 22:13:00,
2011-03-27 16:23:00,61.7,33.5,29.76,WSW,247,2.2,6.7,35,0.00,,,0.06,open2300-1.11,2011-03-27 22:23:00,
2011-03-27 16:33:00,62.4,34.9,29.76,WSW,247,3.1,4.9,36,0.00,,,0.06,open2300-1.11,2011-03-27 22:33:00,
2011-03-27 16:43:00,62.4,32.0,29.75,WSW,247,5.4,7.2,32,0.00,,,0.06,open2300-1.11,2011-03-27 22:43:00,
2011-03-27 16:53:00,62.8,32.3,29.75,WSW,247,5.4,6.3,32,0.00,,,0.06,open2300-1.11,2011-03-27 22:53:00,
2011-03-27 17:03:00,64.0,33.5,29.75,WSW,247,5.6,5.6,32,0.00,,,0.06,open2300-1.11,2011-03-27 23:03:00,
2011-03-27 17:13:00,64.0,31.0,29.74,WNW,292,5.6,5.6,31,0.00,,,0.06,open2300-1.11,2011-03-27 23:13:00,
2011-03-27 17:23:00,64.6,31.5,29.73,WNW,292,6.0,6.0,29,0.00,,,0.06,open2300-1.11,2011-03-27 23:23:00,
2011-03-27 17:33:00,64.9,30.9,29.73,West,270,2.9,6.3,28,0.00,,,0.06,open2300-1.11,2011-03-27 23:33:00,
2011-03-27 17:43:00,67.1,32.7,29.74,WSW,247,7.2,8.5,28,0.00,,,0.06,open2300-1.11,2011-03-27 23:43:00,
2011-03-27 17:53:00,68.0,31.5,29.73,WSW,247,5.1,7.2,26,0.00,,,0.06,open2300-1.11,2011-03-27 23:53:00,
2011-03-27 18:03:00,64.2,29.2,29.74,West,270,1.6,5.6,27,0.00,,,0.06,open2300-1.11,2011-03-28 00:03:00,
2011-03-27 18:13:00,61.3,28.6,29.74,West,270,2.0,4.2,29,0.00,,,0.06,open2300-1.11,2011-03-28 00:13:00,
2011-03-27 18:23:00,59.5,27.1,29.73,West,270,0.0,5.8,29,0.00,,,0.06,open2300-1.11,2011-03-28 00:23:00,
2011-03-27 18:33:00,58.3,27.7,29.73,NW,315,0.0,4.5,31,0.00,,,0.06,open2300-1.11,2011-03-28 00:33:00,
2011-03-27 18:43:00,57.6,26.4,29.73,WNW,292,0.0,6.0,30,0.00,,,0.06,open2300-1.11,2011-03-28 00:43:00,
2011-03-27 18:53:00,57.0,26.6,29.73,South,180,5.1,5.1,31,0.00,,,0.06,open2300-1.11,2011-03-28 00:53:00,
2011-03-27 19:03:00,56.3,26.6,29.74,WNW,292,0.0,5.1,32,0.00,,,0.06,open2300-1.11,2011-03-28 01:03:00,
2011-03-27 19:13:00,55.8,26.2,29.73,West,270,2.0,2.9,32,0.00,,,0.06,open2300-1.11,2011-03-28 01:13:00,
2011-03-27 19:23:00,55.2,26.4,29.74,WNW,292,2.5,2.5,33,0.00,,,0.06,open2300-1.11,2011-03-28 01:23:00,
2011-03-27 19:33:00,54.9,26.8,29.74,North,0,2.7,2.9,34,0.00,,,0.06,open2300-1.11,2011-03-28 01:33:00,
2011-03-27 19:43:00,54.3,26.3,29.74,WNW,292,0.0,2.7,34,0.00,,,0.06,open2300-1.11,2011-03-28 01:43:00,
2011-03-27 19:53:00,54.1,26.2,29.74,NW,315,0.0,0.0,34,0.00,,,0.06,open2300-1.11,2011-03-28 01:53:00,
2011-03-27 20:03:00,53.6,25.7,29.74,NW,315,0.0,0.0,34,0.00,,,0.02,open2300-1.11,2011-03-28 02:03:00,
2011-03-27 20:13:00,53.1,25.9,29.74,NW,315,0.0,0.0,35,0.00,,,0.02,open2300-1.11,2011-03-28 02:13:00,
2011-03-27 20:23:00,52.5,26.1,29.73,NW,315,0.0,0.0,36,0.00,,,0.02,open2300-1.11,2011-03-28 02:23:00,
2011-03-27 20:33:00,51.8,26.2,29.73,NW,315,0.0,0.0,37,0.00,,,0.02,open2300-1.11,2011-03-28 02:33:00,
2011-03-27 20:43:00,51.1,26.9,29.73,NW,315,0.0,0.0,39,0.00,,,0.02,open2300-1.11,2011-03-28 02:43:00,
2011-03-27 20:53:00,50.7,27.2,29.73,NW,315,0.0,0.0,40,0.00,,,0.02,open2300-1.11,2011-03-28 02:53:00,
2011-03-27 21:03:00,50.4,27.5,29.74,NW,315,0.0,0.0,41,0.00,,,0.00,open2300-1.11,2011-03-28 03:03:00,
2011-03-27 21:13:00,49.8,27.0,29.74,NW,315,0.0,0.0,41,0.00,,,0.00,open2300-1.11,2011-03-28 03:13:00,
2011-03-27 21:23:00,49.3,27.0,29.73,NW,315,0.0,0.0,42,0.00,,,0.00,open2300-1.11,2011-03-28 03:23:00,
2011-03-27 21:33:00,48.7,26.0,29.74,NW,315,0.0,0.0,41,0.00,,,0.00,open2300-1.11,2011-03-28 03:33:00,
2011-03-27 21:43:00,48.2,26.1,29.73,NW,315,0.0,0.0,42,0.00,,,0.00,open2300-1.11,2011-03-28 03:43:00,
2011-03-27 21:53:00,47.8,26.3,29.73,NW,315,0.0,0.0,43,0.00,,,0.00,open2300-1.11,2011-03-28 03:53:00,
2011-03-27 22:03:00,46.9,26.0,29.73,NW,315,0.0,0.0,44,0.00,,,0.00,open2300-1.11,2011-03-28 04:03:00,
2011-03-27 22:13:00,46.2,25.4,29.73,East,90,0.0,0.0,44,0.00,,,0.00,open2300-1.11,2011-03-28 04:13:00,
2011-03-27 22:23:00,45.7,25.4,29.73,ENE,67,4.0,4.2,45,0.00,,,0.00,open2300-1.11,2011-03-28 04:23:00,
2011-03-27 22:33:00,46.0,25.7,29.73,East,90,0.0,4.0,45,0.00,,,0.00,open2300-1.11,2011-03-28 04:33:00,
2011-03-27 22:43:00,46.0,26.3,29.73,East,90,1.8,2.0,46,0.00,,,0.00,open2300-1.11,2011-03-28 04:43:00,
2011-03-27 22:53:00,46.0,25.7,29.73,East,90,4.7,4.7,45,0.00,,,0.00,open2300-1.11,2011-03-28 04:53:00,
2011-03-27 23:03:00,46.0,25.7,29.73,East,90,4.9,4.9,45,0.00,,,0.00,open2300-1.11,2011-03-28 05:03:00,
2011-03-27 23:13:00,46.0,25.2,29.72,ENE,67,0.0,6.7,44,0.00,,,0.00,open2300-1.11,2011-03-28 05:13:00,
2011-03-27 23:23:00,45.1,24.4,29.72,ENE,67,0.0,0.0,44,0.00,,,0.00,open2300-1.11,2011-03-28 05:23:00,
2011-03-27 23:33:00,44.2,24.1,29.72,East,90,2.0,2.0,45,0.00,,,0.00,open2300-1.11,2011-03-28 05:33:00,
2011-03-27 23:43:00,43.7,24.7,29.72,SE,135,3.6,4.2,47,0.00,,,0.00,open2300-1.11,2011-03-28 05:43:00,
2011-03-27 23:53:00,43.5,24.0,29.72,SSE,157,0.7,3.6,46,0.00,,,0.00,open2300-1.11,2011-03-28 05:53:00,